User: anonymous   Login
Location: Unspecified
(0.0000°N, 0.0000°E)
Time: 01:24:41
(UTC+00:00)
Language:

CUBESAT XI-V - Orbit

View from above orbital plane
View from above orbital plane
View from above satellite
View from above satellite

Ground track
Ground track

The orbit data is extracted from the following two-line orbital elements,

1 28895U 05043F   18174.36105966 +.00000120 +00000-0 +31801-4 0  9991
2 28895 097.9097 325.5666 0017925 053.3069 306.9778 14.63555775674788
Epoch (UTC): 23 June 2018 08:39:55
Eccentricity: 0.0017925
inclination: 97.9097°
perigee height: 669 km
apogee height: 694 km
right ascension of ascending node: 325.5666°
argument of perigee: 53.3069°
revolutions per day: 14.63555775
mean anomaly at epoch: 306.9778°
orbit number at epoch: 67478

The dashed part of the orbit path shows where the satellite is in the earth's shadow,  

DLR